• In Germany
  • List of Countries
  • For 7 days
  • Water Temperature
  • Satellite Maps
  • Weather Map
  • Weather Widgets
  • user-avatar
    Login

    Hourly Weather Nakhchivan

    Today, 25 May, Thursday

    Time Temperature Precipitation Wind Pressure Humidity
    00:00 +18°C° 0 mm 1 mps 686 mmHg 62%
    01:00 +16°C° 0 mm 1 mps 686 mmHg 63%
    02:00 +16°C° 0 mm 1 mps 686 mmHg 64%
    03:00 +15°C° 0 mm 1 mps 685 mmHg 66%
    04:00 +16°C° 0 mm 1 mps 686 mmHg 63%
    05:00 +16°C° 0 mm 1 mps 686 mmHg 60%
    06:00 +18°C° 0 mm 1 mps 686 mmHg 57%
    07:00 +20°C° 0 mm 1 mps 687 mmHg 51%
    08:00 +21°C° 0 mm 1 mps 687 mmHg 45%
    09:00 +23°C° 0 mm 1 mps 687 mmHg 38%
    10:00 +24°C° 0 mm 1 mps 687 mmHg 34%
    11:00 +25°C° 0 mm 1 mps 687 mmHg 31%
    12:00 +26°C° 0 mm 1 mps 687 mmHg 28%
    13:00 +27°C° 0 mm 2 mps 687 mmHg 26%
    14:00 +27°C° 0 mm 2 mps 687 mmHg 25%
    15:00 +28°C° 0 mm 2 mps 687 mmHg 23%
    16:00 +27°C° 0 mm 2 mps 687 mmHg 25%
    17:00 +26°C° 0 mm 2 mps 687 mmHg 26%
    18:00 +26°C° 0 mm 2 mps 687 mmHg 28%
    19:00 +24°C° 0 mm 2 mps 687 mmHg 32%
    20:00 +21°C° 0 mm 2 mps 687 mmHg 36%
    21:00 +19°C° 0 mm 2 mps 687 mmHg 40%
    22:00 +19°C° 0 mm 2 mps 687 mmHg 42%
    23:00 +18°C° 0 mm 2 mps 687 mmHg 44%

    Tomorrow, 26 May, Friday

    Time Temperature Precipitation Wind Pressure Humidity
    00:00 +17°C° 0 mm 2 mps 687 mmHg 45%
    01:00 +17°C° 0 mm 2 mps 687 mmHg 46%
    02:00 +16°C° 0 mm 2 mps 687 mmHg 47%
    03:00 +16°C° 0 mm 2 mps 687 mmHg 47%
    04:00 +18°C° 0 mm 1 mps 687 mmHg 46%
    05:00 +18°C° 0 mm 1 mps 688 mmHg 44%
    06:00 +19°C° 0 mm 1 mps 688 mmHg 42%
    07:00 +21°C° 0 mm 1 mps 688 mmHg 38%
    08:00 +22°C° 0 mm 1 mps 688 mmHg 33%
    09:00 +24°C° 0 mm 1 mps 688 mmHg 28%
    10:00 +25°C° 0 mm 1 mps 688 mmHg 26%
    11:00 +26°C° 0 mm 1 mps 688 mmHg 24%
    12:00 +28°C° 0 mm 1 mps 688 mmHg 22%
    13:00 +28°C° 0 mm 1 mps 687 mmHg 21%
    14:00 +29°C° 0 mm 1 mps 687 mmHg 20%
    15:00 +29°C° 0 mm 1 mps 687 mmHg 19%
    16:00 +29°C° 0 mm 1 mps 686 mmHg 21%
    17:00 +28°C° 0 mm 1 mps 686 mmHg 23%
    18:00 +27°C° 0 mm 1 mps 686 mmHg 26%
    19:00 +25°C° 0.3 mm 1 mps 686 mmHg 30%
    20:00 +24°C° 0.3 mm 2 mps 686 mmHg 34%
    21:00 +21°C° 0.3 mm 2 mps 686 mmHg 39%
    22:00 +20°C° 0.2 mm 2 mps 686 mmHg 42%
    23:00 +19°C° 0.2 mm 2 mps 686 mmHg 44%

    Day after tomorrow, 27 May, Saturday

    Time Temperature Precipitation Wind Pressure Humidity
    00:00 +19°C° 0.2 mm 2 mps 686 mmHg 47%
    01:00 +18°C° 0.2 mm 2 mps 686 mmHg 47%
    02:00 +19°C° 0.2 mm 1 mps 686 mmHg 48%
    03:00 +19°C° 0.2 mm 1 mps 685 mmHg 48%
    04:00 +19°C° 0.3 mm 1 mps 686 mmHg 48%
    05:00 +20°C° 0.3 mm 1 mps 686 mmHg 47%
    06:00 +20°C° 0.3 mm 1 mps 686 mmHg 46%
    07:00 +22°C° 0.2 mm 1 mps 686 mmHg 41%
    08:00 +23°C° 0.2 mm 1 mps 686 mmHg 36%
    09:00 +25°C° 0.2 mm 1 mps 686 mmHg 32%
    10:00 +26°C° 0.1 mm 1 mps 686 mmHg 29%
    11:00 +28°C° 0.1 mm 2 mps 685 mmHg 27%
    12:00 +29°C° 0.1 mm 2 mps 685 mmHg 25%
    13:00 +29°C° 0.1 mm 2 mps 685 mmHg 24%
    14:00 +30°C° 0.1 mm 2 mps 684 mmHg 23%
    15:00 +31°C° 0.1 mm 3 mps 684 mmHg 22%
    16:00 +30°C° 0.1 mm 3 mps 684 mmHg 24%
    17:00 +29°C° 0.1 mm 2 mps 684 mmHg 26%
    18:00 +29°C° 0.1 mm 2 mps 683 mmHg 28%
    19:00 +27°C° 0.1 mm 2 mps 684 mmHg 34%
    20:00 +25°C° 0.1 mm 2 mps 684 mmHg 40%
    21:00 +23°C° 0.1 mm 2 mps 685 mmHg 46%
    22:00 +21°C° 0 mm 2 mps 685 mmHg 47%
    23:00 +20°C° 0 mm 2 mps 685 mmHg 48%

    28 May, Sunday

    Time Temperature Precipitation Wind Pressure Humidity
    00:00 +21°C° 0 mm 1 mps 685 mmHg 49%
    01:00 +20°C° 0 mm 1 mps 685 mmHg 49%
    02:00 +20°C° 0 mm 1 mps 685 mmHg 50%
    03:00 +19°C° 0 mm 1 mps 685 mmHg 50%
    04:00 +20°C° 0 mm 1 mps 685 mmHg 49%
    05:00 +20°C° 0 mm 1 mps 686 mmHg 48%
    06:00 +21°C° 0 mm 1 mps 686 mmHg 47%
    07:00 +23°C° 0 mm 1 mps 686 mmHg 41%
    08:00 +25°C° 0 mm 1 mps 687 mmHg 36%
    09:00 +26°C° 0 mm 1 mps 687 mmHg 30%
    10:00 +28°C° 0 mm 1 mps 687 mmHg 26%
    11:00 +29°C° 0 mm 2 mps 686 mmHg 23%
    12:00 +30°C° 0 mm 2 mps 686 mmHg 20%
    13:00 +31°C° 0 mm 3 mps 686 mmHg 18%
    14:00 +32°C° 0 mm 4 mps 686 mmHg 16%
    15:00 +33°C° 0 mm 4 mps 685 mmHg 15%
    16:00 +32°C° 0 mm 4 mps 685 mmHg 16%
    17:00 +30°C° 0 mm 5 mps 685 mmHg 17%
    18:00 +29°C° 0 mm 5 mps 685 mmHg 19%
    19:00 +27°C° 0 mm 4 mps 686 mmHg 22%
    20:00 +25°C° 0 mm 3 mps 686 mmHg 26%
    21:00 +23°C° 0 mm 2 mps 686 mmHg 30%
    22:00 +21°C° 0 mm 2 mps 687 mmHg 32%
    23:00 +21°C° 0 mm 2 mps 687 mmHg 33%

    29 May, Monday

    Time Temperature Precipitation Wind Pressure Humidity
    00:00 +20°C° 0 mm 2 mps 687 mmHg 35%
    01:00 +19°C° 0 mm 2 mps 687 mmHg 37%
    02:00 +19°C° 0 mm 2 mps 687 mmHg 39%
    03:00 +19°C° 0 mm 1 mps 687 mmHg 41%
    04:00 +20°C° 0 mm 1 mps 687 mmHg 41%
    05:00 +21°C° 0 mm 1 mps 688 mmHg 41%
    06:00 +21°C° 0 mm 1 mps 688 mmHg 41%
    07:00 +23°C° 0 mm 1 mps 688 mmHg 36%
    08:00 +25°C° 0 mm 1 mps 689 mmHg 31%
    09:00 +26°C° 0 mm 1 mps 689 mmHg 26%
    10:00 +27°C° 0 mm 1 mps 689 mmHg 24%
    11:00 +29°C° 0 mm 1 mps 689 mmHg 22%
    12:00 +30°C° 0 mm 2 mps 689 mmHg 21%
    13:00 +30°C° 0 mm 2 mps 689 mmHg 20%
    14:00 +31°C° 0 mm 2 mps 688 mmHg 20%
    15:00 +31°C° 0 mm 2 mps 688 mmHg 19%
    16:00 +30°C° 0 mm 2 mps 688 mmHg 21%
    17:00 +30°C° 0 mm 3 mps 688 mmHg 23%
    18:00 +29°C° 0 mm 3 mps 688 mmHg 26%
    19:00 +27°C° 0 mm 3 mps 688 mmHg 32%
    20:00 +25°C° 0 mm 2 mps 688 mmHg 38%
    21:00 +23°C° 0 mm 2 mps 688 mmHg 45%
    22:00 +21°C° 0 mm 2 mps 688 mmHg 48%
    23:00 +21°C° 0 mm 2 mps 688 mmHg 52%

    30 May, Tuesday

    Time Temperature Precipitation Wind Pressure Humidity
    00:00 +20°C° 0 mm 2 mps 688 mmHg 55%
    01:00 +19°C° 0 mm 2 mps 688 mmHg 57%
    02:00 +19°C° 0 mm 2 mps 688 mmHg 59%
    03:00 +19°C° 0 mm 1 mps 688 mmHg 61%
    04:00 +19°C° 0 mm 1 mps 688 mmHg 59%
    05:00 +20°C° 0 mm 1 mps 688 mmHg 57%
    06:00 +21°C° 0 mm 1 mps 688 mmHg 55%
    07:00 +22°C° 0 mm 1 mps 688 mmHg 48%
    08:00 +24°C° 0 mm 1 mps 689 mmHg 41%
    09:00 +26°C° 0 mm 1 mps 689 mmHg 34%
    10:00 +28°C° 0 mm 2 mps 688 mmHg 29%
    11:00 +29°C° 0 mm 2 mps 688 mmHg 25%
    12:00 +31°C° 0 mm 2 mps 688 mmHg 21%
    13:00 +33°C° 0 mm 3 mps 688 mmHg 18%
    14:00 +33°C° 0 mm 5 mps 688 mmHg 15%
    15:00 +34°C° 0 mm 6 mps 688 mmHg 13%
    16:00 +33°C° 0 mm 6 mps 688 mmHg 15%
    17:00 +32°C° 0 mm 6 mps 688 mmHg 17%
    18:00 +30°C° 0 mm 6 mps 687 mmHg 19%
    19:00 +28°C° 0 mm 4 mps 688 mmHg 24%
    20:00 +26°C° 0 mm 3 mps 688 mmHg 30%
    21:00 +24°C° 0 mm 2 mps 688 mmHg 35%
    22:00 +23°C° 0 mm 2 mps 688 mmHg 37%
    23:00 +21°C° 0 mm 2 mps 688 mmHg 38%
    Show more